• In Hungary
  • List of Countries
  • For 7 days
  • Water Temperature
  • Satellite Maps
  • Weather Map
  • News
  • Weather Widgets
  • user-avatar
    Login

    Hourly Weather Wilkowiczki

    Today, 25 June, Monday

    Time Temperature Precipitation Wind Pressure Humidity
    00:00 +12°C° 0.1 mm 2 mps 740 mmHg 93%
    01:00 +10°C° 0.1 mm 2 mps 741 mmHg 94%
    02:00 +10°C° 0.1 mm 2 mps 741 mmHg 94%
    03:00 +10°C° 0.1 mm 2 mps 741 mmHg 94%
    04:00 +10°C° 0.1 mm 2 mps 741 mmHg 95%
    05:00 +12°C° 0 mm 2 mps 741 mmHg 93%
    06:00 +12°C° 0 mm 2 mps 741 mmHg 91%
    07:00 +13°C° 0 mm 2 mps 742 mmHg 89%
    08:00 +14°C° 0 mm 2 mps 742 mmHg 85%
    09:00 +14°C° 0 mm 2 mps 742 mmHg 82%
    10:00 +15°C° 0 mm 2 mps 742 mmHg 78%
    11:00 +17°C° 0 mm 2 mps 742 mmHg 71%
    12:00 +18°C° 0 mm 2 mps 742 mmHg 65%
    13:00 +19°C° 0 mm 2 mps 742 mmHg 59%
    14:00 +20°C° 0 mm 2 mps 742 mmHg 57%
    15:00 +20°C° 0 mm 2 mps 742 mmHg 56%
    16:00 +20°C° 0 mm 2 mps 741 mmHg 54%
    17:00 +19°C° 0 mm 2 mps 741 mmHg 59%
    18:00 +19°C° 0 mm 1 mps 742 mmHg 64%
    19:00 +19°C° 0 mm 1 mps 742 mmHg 69%
    20:00 +16°C° 0.2 mm 1 mps 742 mmHg 73%
    21:00 +15°C° 0.2 mm 1 mps 742 mmHg 77%
    22:00 +14°C° 0.2 mm 1 mps 742 mmHg 80%
    23:00 +14°C° 0.1 mm 2 mps 742 mmHg 83%

    Tomorrow, 26 June, Tuesday

    Time Temperature Precipitation Wind Pressure Humidity
    00:00 +13°C° 0.1 mm 2 mps 742 mmHg 85%
    01:00 +13°C° 0.1 mm 2 mps 742 mmHg 87%
    02:00 +13°C° 0 mm 2 mps 742 mmHg 89%
    03:00 +12°C° 0 mm 2 mps 742 mmHg 91%
    04:00 +12°C° 0 mm 2 mps 742 mmHg 92%
    05:00 +13°C° 0 mm 2 mps 742 mmHg 89%
    06:00 +15°C° 0 mm 2 mps 742 mmHg 86%
    07:00 +16°C° 0 mm 2 mps 742 mmHg 83%
    08:00 +17°C° 0.3 mm 3 mps 742 mmHg 77%
    09:00 +18°C° 0.3 mm 3 mps 742 mmHg 71%
    10:00 +20°C° 0.3 mm 3 mps 742 mmHg 65%
    11:00 +20°C° 0.4 mm 3 mps 742 mmHg 63%
    12:00 +21°C° 0.4 mm 4 mps 742 mmHg 61%
    13:00 +22°C° 0.4 mm 4 mps 741 mmHg 58%
    14:00 +21°C° 0.6 mm 4 mps 741 mmHg 61%
    15:00 +21°C° 0.6 mm 4 mps 741 mmHg 64%
    16:00 +20°C° 0.6 mm 4 mps 741 mmHg 67%
    17:00 +20°C° 0.3 mm 4 mps 741 mmHg 71%
    18:00 +19°C° 0.3 mm 3 mps 741 mmHg 76%
    19:00 +18°C° 0.3 mm 2 mps 741 mmHg 81%
    20:00 +17°C° 0.2 mm 2 mps 741 mmHg 85%
    21:00 +15°C° 0.2 mm 2 mps 741 mmHg 89%
    22:00 +14°C° 0.2 mm 2 mps 741 mmHg 93%
    23:00 +13°C° 0 mm 2 mps 741 mmHg 94%

    Day after tomorrow, 27 June, Wednesday

    Time Temperature Precipitation Wind Pressure Humidity
    00:00 +13°C° 0 mm 2 mps 741 mmHg 95%
    01:00 +12°C° 0 mm 2 mps 741 mmHg 96%
    02:00 +12°C° 0 mm 2 mps 741 mmHg 96%
    03:00 +12°C° 0 mm 2 mps 741 mmHg 96%
    04:00 +11°C° 0 mm 3 mps 741 mmHg 96%
    05:00 +12°C° 0.1 mm 3 mps 741 mmHg 95%
    06:00 +12°C° 0.1 mm 3 mps 741 mmHg 94%
    07:00 +13°C° 0.1 mm 3 mps 741 mmHg 92%
    08:00 +13°C° 0.1 mm 3 mps 741 mmHg 90%
    09:00 +13°C° 0.1 mm 3 mps 741 mmHg 89%
    10:00 +14°C° 0.1 mm 3 mps 741 mmHg 87%
    11:00 +16°C° 0 mm 3 mps 741 mmHg 81%
    12:00 +17°C° 0 mm 3 mps 741 mmHg 75%
    13:00 +19°C° 0 mm 3 mps 741 mmHg 69%
    14:00 +19°C° 0.2 mm 3 mps 741 mmHg 69%
    15:00 +20°C° 0.2 mm 4 mps 741 mmHg 68%
    16:00 +20°C° 0.2 mm 4 mps 741 mmHg 68%
    17:00 +19°C° 0.3 mm 4 mps 741 mmHg 73%
    18:00 +19°C° 0.3 mm 3 mps 741 mmHg 79%
    19:00 +18°C° 0.3 mm 3 mps 741 mmHg 84%
    20:00 +17°C° 0.2 mm 3 mps 741 mmHg 87%
    21:00 +16°C° 0.2 mm 3 mps 741 mmHg 90%
    22:00 +16°C° 0.2 mm 3 mps 740 mmHg 92%
    23:00 +14°C° 0.4 mm 3 mps 740 mmHg 93%

    28 June, Thursday

    Time Temperature Precipitation Wind Pressure Humidity
    00:00 +14°C° 0.4 mm 3 mps 740 mmHg 94%
    01:00 +14°C° 0.4 mm 3 mps 739 mmHg 94%
    02:00 +14°C° 0.1 mm 4 mps 739 mmHg 95%
    03:00 +14°C° 0.1 mm 4 mps 738 mmHg 96%
    04:00 +14°C° 0.1 mm 4 mps 738 mmHg 96%
    05:00 +15°C° 0.2 mm 5 mps 737 mmHg 95%
    06:00 +15°C° 0.2 mm 6 mps 736 mmHg 94%
    07:00 +16°C° 0.2 mm 7 mps 736 mmHg 93%
    08:00 +16°C° 2.1 mm 7 mps 735 mmHg 93%
    09:00 +16°C° 2.1 mm 7 mps 734 mmHg 93%
    10:00 +17°C° 2.1 mm 8 mps 734 mmHg 93%
    11:00 +17°C° 1.4 mm 8 mps 733 mmHg 93%
    12:00 +17°C° 1.4 mm 8 mps 733 mmHg 92%
    13:00 +18°C° 1.4 mm 8 mps 733 mmHg 91%
    14:00 +18°C° 0.8 mm 7 mps 732 mmHg 91%
    15:00 +20°C° 0.8 mm 6 mps 732 mmHg 90%
    16:00 +20°C° 0.8 mm 6 mps 732 mmHg 89%
    17:00 +20°C° 0.7 mm 5 mps 732 mmHg 90%
    18:00 +20°C° 0.7 mm 4 mps 732 mmHg 90%
    19:00 +20°C° 0.7 mm 4 mps 732 mmHg 91%
    20:00 +19°C° 1 mm 3 mps 732 mmHg 92%
    21:00 +18°C° 1 mm 2 mps 732 mmHg 94%
    22:00 +17°C° 1 mm 2 mps 732 mmHg 95%
    23:00 +17°C° 0 mm 2 mps 732 mmHg 95%

    29 June, Friday

    Time Temperature Precipitation Wind Pressure Humidity
    00:00 +16°C° 0 mm 2 mps 732 mmHg 95%
    01:00 +16°C° 0 mm 2 mps 732 mmHg 95%
    02:00 +16°C° 0 mm 2 mps 732 mmHg 95%
    03:00 +16°C° 0 mm 2 mps 732 mmHg 95%
    04:00 +15°C° 0 mm 2 mps 732 mmHg 95%
    05:00 +17°C° 0 mm 2 mps 732 mmHg 91%
    06:00 +18°C° 0 mm 2 mps 732 mmHg 87%
    07:00 +19°C° 0 mm 3 mps 732 mmHg 83%
    08:00 +20°C° 0.1 mm 3 mps 732 mmHg 78%
    09:00 +21°C° 0.1 mm 3 mps 732 mmHg 72%
    10:00 +23°C° 0.1 mm 4 mps 732 mmHg 67%
    11:00 +23°C° 0.3 mm 4 mps 732 mmHg 65%
    12:00 +25°C° 0.3 mm 4 mps 732 mmHg 64%
    13:00 +26°C° 0.3 mm 4 mps 732 mmHg 63%
    14:00 +25°C° 0.8 mm 5 mps 731 mmHg 66%
    15:00 +25°C° 0.8 mm 5 mps 731 mmHg 69%
    16:00 +23°C° 0.8 mm 5 mps 731 mmHg 72%
    17:00 +22°C° 0.8 mm 4 mps 731 mmHg 78%
    18:00 +21°C° 0.8 mm 4 mps 731 mmHg 83%
    19:00 +20°C° 0.8 mm 4 mps 731 mmHg 88%
    20:00 +19°C° 1 mm 4 mps 731 mmHg 90%
    21:00 +18°C° 1 mm 4 mps 732 mmHg 92%
    22:00 +17°C° 1 mm 5 mps 732 mmHg 94%
    23:00 +17°C° 0.3 mm 4 mps 732 mmHg 94%

    30 June, Saturday

    Time Temperature Precipitation Wind Pressure Humidity
    00:00 +17°C° 0.3 mm 4 mps 732 mmHg 94%
    01:00 +17°C° 0.3 mm 4 mps 732 mmHg 94%
    02:00 +15°C° 0.1 mm 4 mps 732 mmHg 94%
    03:00 +15°C° 0.1 mm 4 mps 732 mmHg 94%
    04:00 +15°C° 0.1 mm 4 mps 732 mmHg 93%
    05:00 +15°C° 0 mm 4 mps 733 mmHg 91%
    06:00 +17°C° 0 mm 4 mps 733 mmHg 88%
    07:00 +17°C° 0 mm 4 mps 733 mmHg 85%
    08:00 +18°C° 0 mm 4 mps 733 mmHg 79%
    09:00 +20°C° 0 mm 4 mps 734 mmHg 72%
    10:00 +21°C° 0 mm 4 mps 734 mmHg 66%
    11:00 +22°C° 0.1 mm 4 mps 734 mmHg 63%
    12:00 +23°C° 0.1 mm 4 mps 734 mmHg 60%
    13:00 +23°C° 0.1 mm 4 mps 734 mmHg 57%
    14:00 +25°C° 0.1 mm 4 mps 734 mmHg 57%
    15:00 +25°C° 0.1 mm 3 mps 734 mmHg 57%
    16:00 +25°C° 0.1 mm 3 mps 734 mmHg 57%
    17:00 +24°C° 0.1 mm 3 mps 734 mmHg 62%
    18:00 +23°C° 0.1 mm 2 mps 735 mmHg 68%
    19:00 +21°C° 0.1 mm 2 mps 735 mmHg 74%
    20:00 +20°C° 0 mm 1 mps 735 mmHg 78%
    21:00 +19°C° 0 mm 1 mps 735 mmHg 82%
    22:00 +18°C° 0 mm 1 mps 736 mmHg 87%
    23:00 +16°C° 0 mm 1 mps 736 mmHg 88%
    Show more